Location: Clifton Cemetery
(31.7721°N, 97.5731°W)
Time: 22:42:13
(UTC+00:00)

Daily predictions for brighter satellites

Satellite Brightness Start Highest point End
(mag) Time Altitude Azimuth Time Altitude Azimuth Time Altitude Azimuth
Intercosmos 25 Rocket 2.9 12:00:03 10° NNW 12:03:08 55° W 12:06:43 10° S
Cosmos 2084 4.4 12:04:21 24° WSW 12:04:21 24° WSW 12:07:33 10° SSW
Cosmos 2369 3.9 12:00:04 10° SW 12:05:31 48° WNW 12:11:00 10° N
Aurora 2 Rocket 4.1 12:02:31 19° WSW 12:05:57 41° S 12:12:34 10° ESE
Cosmos 1400 Rocket 2.6 12:03:22 10° SSW 12:07:04 61° W 12:10:51 10° N
Cosmos 773 Rocket 4.4 12:06:02 10° NNW 12:10:52 39° W 12:15:38 10° S
Cosmos 1782 Rocket 3.5 12:06:52 10° S 12:11:15 81° W 12:15:40 10° N
Cosmos 1908 Rocket 4.1 12:07:38 10° SW 12:11:35 35° W 12:15:35 10° NNW
SL-16 R/B 2.5 12:08:25 10° S 12:14:01 71° ESE 12:19:40 10° NNE
Cosmos 1812 2.0 12:13:29 18° SW 12:14:50 35° W 12:17:04 10° NNW
Cosmos 2208 Rocket 4.5 12:10:16 10° NNW 12:15:19 40° W 12:20:20 10° S
CZ-4 R/B 4.1 12:12:10 10° N 12:16:57 48° WNW 12:21:39 10° SW
IGS 5A 3.2 12:14:05 10° N 12:18:04 83° WNW 12:22:01 10° SSW
Cosmos 372 Rocket 3.8 12:18:49 10° SSW 12:23:53 79° WNW 12:28:59 10° NNE
Cosmos 2333 Rocket 2.6 12:20:24 10° S 12:26:07 70° ESE 12:31:49 10° NNE
Cosmos 2227 Rocket 3.0 12:21:32 10° NW 12:26:21 29° WSW 12:31:09 10° SSW
Cosmos 1898 Rocket 3.5 12:28:07 10° SSW 12:33:23 85° WNW 12:38:43 10° NNE
Cosmos 1869 3.4 12:30:17 10° SSW 12:33:38 40° W 12:36:58 10° N
Hubble Space Telescope 3.4 12:32:08 10° S 12:33:42 12° SSE 12:35:17 10° SE
DELTA 2 R/B (1) 3.7 12:30:48 10° WSW 12:36:20 81° SSE 12:41:55 10° ENE
Cosmos 2221 Rocket 4.3 12:33:22 10° NNW 12:37:22 32° W 12:41:20 10° SSW
Cosmos 2173 Rocket 4.1 12:33:39 10° S 12:40:00 83° W 12:46:24 10° N
BREEZE-M DEB (TANK) 2.2 12:37:58 10° SW 12:40:12 71° NW 12:44:33 10° NE
Cosmos 1025 Rocket 4.3 12:37:27 10° NW 12:40:39 20° W 12:43:51 10° SW
Cosmos 2322 Rocket 2.6 12:38:53 10° S 12:44:31 70° ESE 12:50:09 10° NNE
Cosmos 1937 Rocket 3.5 12:41:28 10° SSW 12:46:35 89° W 12:51:46 10° NNE
Cosmos 1346 Rocket 2.7 12:43:29 10° N 12:47:10 80° E 12:50:49 10° S
SL-4 R/B 2.0 12:43:35 10° NW 12:47:15 73° NE 12:51:04 10° SE
NOSS 3-1 (A) 4.0 12:44:15 10° WSW 12:47:51 23° NW 12:51:52 10° N
DMSP B5D1-3 4.5 12:42:51 10° S 12:47:53 76° WSW 12:52:56 10° NNW
BREEZE-M DEB (TANK) 2.3 12:45:56 10° WSW 12:48:29 67° NW 12:54:54 10° NE
Cosmos 2219 Rocket 4.0 12:43:50 10° S 12:48:57 37° ESE 12:54:04 10° NE
COSMO-SKYMED 1 3.1 12:45:39 10° SSW 12:49:22 34° W 12:53:07 10° NNW
USA 215 4.2 12:44:18 10° ESE 12:50:30 46° NE 12:56:42 10° NNW
Cosmos 2100 Rocket 4.1 12:46:44 10° SSW 12:53:00 62° W 12:59:18 10° N
